Voltar ao catálogo

TITAN 3C TRANSTAGE R/B

AtivoMEO
NORAD 8751·ROCKET BODY·🇺🇸 United States

Lançado Mar 15, 1976 de Cape Canaveral Space Force Station

Loading…

Próximas Passagens (próximas 24 horas)

TLE

AtualizadoSource: Space-Track

Época: Sep 14, 2026, 12:05 UTC

1 08751U 76023F   26257.50388465 -.00000045  00000-0  00000-0 0  9990
2 08751  22.0407  41.5722 0122535 109.0912 263.5059  0.98324391184090

Acompanhe TITAN 3C TRANSTAGE R/B em tempo real com AllMySat

Download on the App Store